When you browse on this site, cookies collect data to enhance your experience and personalize the content and advertising you see.
Visit our Privacy Policy to learn more. By continuing to use the site, you agree to this use of cookies and data.
  • In Portugal
  • List of Countries
  • For 7 days
  • Water Temperature
  • Weather Map
  • Weather Widgets
  • user-avatar
    Login

    Hourly Weather Kaybaly

    Today, 3 June, Wednesday

    Time Temperature Precipitation Wind Pressure Humidity
    00:00 +14°C° 0 mm 2 mps 732 mmHg 84%
    01:00 +14°C° 0.2 mm 2 mps 732 mmHg 85%
    02:00 +13°C° 0.2 mm 2 mps 732 mmHg 86%
    03:00 +13°C° 0.2 mm 2 mps 732 mmHg 87%
    04:00 +13°C° 0 mm 3 mps 732 mmHg 84%
    05:00 +14°C° 0 mm 4 mps 732 mmHg 82%
    06:00 +15°C° 0 mm 5 mps 732 mmHg 83%
    07:00 +16°C° 0.4 mm 5 mps 732 mmHg 76%
    08:00 +17°C° 0.4 mm 5 mps 732 mmHg 69%
    09:00 +19°C° 0.4 mm 6 mps 732 mmHg 62%
    10:00 +19°C° 0.4 mm 6 mps 732 mmHg 61%
    11:00 +17°C° 0.4 mm 6 mps 732 mmHg 60%
    12:00 +17°C° 0.4 mm 5 mps 733 mmHg 60%
    13:00 +17°C° 0.3 mm 6 mps 733 mmHg 58%
    14:00 +17°C° 0.3 mm 6 mps 734 mmHg 55%
    15:00 +19°C° 0.3 mm 6 mps 734 mmHg 53%
    16:00 +17°C° 0.1 mm 5 mps 735 mmHg 56%
    17:00 +16°C° 0.1 mm 5 mps 735 mmHg 58%
    18:00 +17°C° 0.1 mm 4 mps 735 mmHg 60%
    19:00 +14°C° 0 mm 3 mps 736 mmHg 63%
    20:00 +14°C° 0 mm 2 mps 736 mmHg 66%
    21:00 +12°C° 0 mm 1 mps 737 mmHg 69%
    22:00 +12°C° 0 mm 1 mps 737 mmHg 71%
    23:00 +11°C° 0 mm 1 mps 737 mmHg 73%

    Tomorrow, 4 June, Thursday

    Time Temperature Precipitation Wind Pressure Humidity
    00:00 +10°C° 0 mm 1 mps 737 mmHg 75%
    01:00 +10°C° 0 mm 1 mps 736 mmHg 77%
    02:00 +10°C° 0 mm 1 mps 736 mmHg 78%
    03:00 +10°C° 0 mm 1 mps 736 mmHg 80%
    04:00 +10°C° 0 mm 1 mps 736 mmHg 78%
    05:00 +11°C° 0 mm 1 mps 735 mmHg 76%
    06:00 +12°C° 0 mm 1 mps 735 mmHg 74%
    07:00 +13°C° 0 mm 1 mps 735 mmHg 71%
    08:00 +14°C° 0 mm 1 mps 734 mmHg 68%
    09:00 +14°C° 0 mm 1 mps 734 mmHg 65%
    10:00 +15°C° 0 mm 1 mps 734 mmHg 61%
    11:00 +16°C° 0 mm 1 mps 733 mmHg 56%
    12:00 +17°C° 0 mm 2 mps 733 mmHg 52%
    13:00 +19°C° 0.2 mm 1 mps 733 mmHg 51%
    14:00 +19°C° 0.2 mm 1 mps 733 mmHg 51%
    15:00 +19°C° 0.2 mm 1 mps 732 mmHg 51%
    16:00 +18°C° 0.6 mm 2 mps 732 mmHg 55%
    17:00 +17°C° 0.6 mm 2 mps 732 mmHg 60%
    18:00 +17°C° 0.6 mm 3 mps 732 mmHg 64%
    19:00 +15°C° 0.1 mm 2 mps 732 mmHg 70%
    20:00 +14°C° 0.1 mm 1 mps 732 mmHg 75%
    21:00 +12°C° 0.1 mm 1 mps 732 mmHg 81%
    22:00 +12°C° 0.1 mm 1 mps 732 mmHg 82%
    23:00 +11°C° 0.1 mm 0 mps 732 mmHg 83%

    Day after tomorrow, 5 June, Friday

    Time Temperature Precipitation Wind Pressure Humidity
    00:00 +10°C° 0.1 mm 0 mps 732 mmHg 84%
    01:00 +11°C° 0 mm 1 mps 731 mmHg 85%
    02:00 +11°C° 0 mm 1 mps 731 mmHg 86%
    03:00 +11°C° 0 mm 1 mps 730 mmHg 86%
    04:00 +11°C° 0 mm 1 mps 730 mmHg 85%
    05:00 +12°C° 0 mm 1 mps 730 mmHg 83%
    06:00 +12°C° 0 mm 1 mps 730 mmHg 82%
    07:00 +11°C° 1.4 mm 3 mps 730 mmHg 84%
    08:00 +11°C° 1.4 mm 4 mps 729 mmHg 87%
    09:00 +9°C° 1.4 mm 5 mps 729 mmHg 90%
    10:00 +9°C° 2.1 mm 5 mps 729 mmHg 90%
    11:00 +9°C° 2.1 mm 5 mps 730 mmHg 90%
    12:00 +10°C° 2.1 mm 4 mps 730 mmHg 90%
    13:00 +10°C° 0.4 mm 4 mps 730 mmHg 87%
    14:00 +11°C° 0.4 mm 4 mps 731 mmHg 84%
    15:00 +12°C° 0.4 mm 4 mps 731 mmHg 81%
    16:00 +11°C° 0.3 mm 4 mps 731 mmHg 83%
    17:00 +11°C° 0.3 mm 4 mps 731 mmHg 85%
    18:00 +10°C° 0.3 mm 4 mps 732 mmHg 88%
    19:00 +9°C° 0.4 mm 5 mps 732 mmHg 88%
    20:00 +9°C° 0.4 mm 5 mps 732 mmHg 89%
    21:00 +9°C° 0.4 mm 6 mps 732 mmHg 90%
    22:00 +8°C° 2.2 mm 7 mps 732 mmHg 90%
    23:00 +7°C° 2.2 mm 8 mps 732 mmHg 91%

    6 June, Saturday

    Time Temperature Precipitation Wind Pressure Humidity
    00:00 +7°C° 2.2 mm 9 mps 732 mmHg 91%
    01:00 +7°C° 3.4 mm 9 mps 732 mmHg 90%
    02:00 +7°C° 3.4 mm 9 mps 733 mmHg 89%
    03:00 +7°C° 3.4 mm 9 mps 733 mmHg 88%
    04:00 +7°C° 0.8 mm 8 mps 733 mmHg 87%
    05:00 +8°C° 0.8 mm 7 mps 734 mmHg 86%
    06:00 +9°C° 0.8 mm 6 mps 734 mmHg 84%
    07:00 +10°C° 0.2 mm 6 mps 735 mmHg 80%
    08:00 +12°C° 0.2 mm 5 mps 735 mmHg 76%
    09:00 +13°C° 0.2 mm 5 mps 736 mmHg 71%
    10:00 +13°C° 0.2 mm 5 mps 736 mmHg 70%
    11:00 +14°C° 0.2 mm 6 mps 737 mmHg 69%
    12:00 +14°C° 0.2 mm 6 mps 737 mmHg 67%
    13:00 +13°C° 0.6 mm 6 mps 737 mmHg 71%
    14:00 +13°C° 0.6 mm 6 mps 737 mmHg 74%
    15:00 +12°C° 0.6 mm 5 mps 737 mmHg 78%
    16:00 +12°C° 0.2 mm 5 mps 738 mmHg 79%
    17:00 +11°C° 0.2 mm 6 mps 738 mmHg 81%
    18:00 +10°C° 0.2 mm 6 mps 738 mmHg 83%
    19:00 +10°C° 0.8 mm 6 mps 738 mmHg 86%
    20:00 +10°C° 0.8 mm 6 mps 738 mmHg 89%
    21:00 +9°C° 0.8 mm 7 mps 738 mmHg 92%
    22:00 +9°C° 0.3 mm 6 mps 738 mmHg 90%
    23:00 +9°C° 0.3 mm 5 mps 738 mmHg 89%

    7 June, Sunday

    Time Temperature Precipitation Wind Pressure Humidity
    00:00 +10°C° 0.3 mm 4 mps 738 mmHg 88%
    01:00 +10°C° 0.1 mm 4 mps 738 mmHg 89%
    02:00 +9°C° 0.1 mm 5 mps 738 mmHg 89%
    03:00 +9°C° 0.1 mm 5 mps 738 mmHg 90%
    04:00 +9°C° 0.1 mm 5 mps 738 mmHg 89%
    05:00 +10°C° 0.1 mm 5 mps 737 mmHg 89%
    06:00 +10°C° 0.1 mm 5 mps 737 mmHg 88%
    07:00 +12°C° 0.6 mm 5 mps 737 mmHg 85%
    08:00 +13°C° 0.6 mm 6 mps 737 mmHg 82%
    09:00 +14°C° 0.6 mm 6 mps 737 mmHg 79%
    10:00 +13°C° 1.9 mm 5 mps 736 mmHg 80%
    11:00 +12°C° 1.9 mm 3 mps 736 mmHg 81%
    12:00 +12°C° 1.9 mm 2 mps 736 mmHg 82%
    13:00 +14°C° 0.2 mm 2 mps 736 mmHg 78%
    14:00 +15°C° 0.2 mm 2 mps 736 mmHg 73%
    15:00 +16°C° 0.2 mm 3 mps 736 mmHg 69%
    16:00 +16°C° 1.3 mm 3 mps 736 mmHg 73%
    17:00 +15°C° 1.3 mm 2 mps 736 mmHg 77%
    18:00 +14°C° 1.3 mm 2 mps 736 mmHg 82%
    19:00 +13°C° 0.5 mm 2 mps 737 mmHg 82%
    20:00 +13°C° 0.5 mm 2 mps 737 mmHg 83%
    21:00 +12°C° 0.5 mm 1 mps 737 mmHg 84%
    22:00 +10°C° 0.1 mm 2 mps 738 mmHg 85%
    23:00 +10°C° 0.1 mm 2 mps 738 mmHg 86%

    8 June, Monday

    Time Temperature Precipitation Wind Pressure Humidity
    00:00 +9°C° 0.1 mm 2 mps 738 mmHg 87%
    01:00 +9°C° 0 mm 2 mps 738 mmHg 87%
    02:00 +9°C° 0 mm 2 mps 738 mmHg 87%
    03:00 +8°C° 0 mm 2 mps 738 mmHg 87%
    04:00 +9°C° 0.1 mm 2 mps 738 mmHg 85%
    05:00 +10°C° 0.1 mm 2 mps 738 mmHg 82%
    06:00 +10°C° 0.1 mm 3 mps 738 mmHg 80%
    07:00 +12°C° 0.2 mm 3 mps 738 mmHg 73%
    08:00 +13°C° 0.2 mm 3 mps 738 mmHg 65%
    09:00 +14°C° 0.2 mm 4 mps 738 mmHg 58%
    10:00 +14°C° 0.2 mm 4 mps 738 mmHg 56%
    11:00 +15°C° 0.2 mm 4 mps 738 mmHg 55%
    12:00 +16°C° 0.2 mm 3 mps 737 mmHg 53%
    13:00 +17°C° 0.5 mm 3 mps 737 mmHg 52%
    14:00 +17°C° 0.5 mm 3 mps 737 mmHg 52%
    15:00 +17°C° 0.5 mm 3 mps 737 mmHg 52%
    16:00 +17°C° 0.2 mm 2 mps 737 mmHg 55%
    17:00 +17°C° 0.2 mm 2 mps 737 mmHg 58%
    18:00 +16°C° 0.2 mm 2 mps 738 mmHg 61%
    19:00 +15°C° 0.1 mm 1 mps 738 mmHg 64%
    20:00 +13°C° 0.1 mm 1 mps 738 mmHg 66%
    21:00 +12°C° 0.1 mm 1 mps 739 mmHg 69%
    22:00 +11°C° 0 mm 1 mps 739 mmHg 72%
    23:00 +11°C° 0 mm 1 mps 739 mmHg 75%
    Show more